Weather in Bergerac

France     44°51′10″N   0°29′35″E
temp.,
°C
wind,
m/s
gust,
m/s
humid.,
%
clouds,
%
prec.,
mm/h
press.,
hPa
HPBL,
m
7 may, fri
fri723:00+11sw4997100 2.5 1016427
02:00+11wsw41097100 3.6 1016403
05:00+11wsw3898100 0.2 1016401
08:00+12wnw269779 0.3 1017409
11:00+15wnw4577100 0.3 1019932
14:00+17wnw4559100 0.4 10191547
17:00+16nw3468100 0.1 1018617
20:00+16ne117273 0.1 101830
8 may, sat
sat823:00+11ese228688 0.0 101922
02:00+11se228791 0.0 101734
05:00+10se339111 0.0 101748
08:00+11ese37895 0.0 1016169
11:00+19se576468 0.0 1014586
14:00+24se68515 0.0 1012973
17:00+26sse5749100 0.0 10091270
20:00+23sse487186 0.0 1007163
9 may, sun
sun923:00+19se8176778 0.0 1007541
02:00+17se9197494 0.0 1006569
05:00+15se101979100 0.0 1004515
08:00+16se9187582 0.0 1004610
11:00+20se10166999 0.0 1003746
14:00+17s81184100 1.9 1005693
17:00+19sse71282100 4.6 1003844
20:00+16sse81687100 5.4 1002647
10 may, mon
mon1023:00+12wnw41097100 13.9 1006616
02:00+11ssw3495100 14.6 1008128
05:00+10ssw129186 0.5 100931
08:00+11se3490100 0.5 1010163
11:00+14s11687 0.0 1010570
14:00+18s235462 0.0 10081632
17:00+18s225895 0.4 1007979
20:00+14w4684100 2.6 1006181
11 may, tue
tue1123:00+10e229094 5.5 100720
02:00+11ese2284100 5.6 100729
05:00+9sw239589 0.4 100854
08:00+10w71195100 0.8 1009733
11:00+10w5994100 2.4 1011747
14:00+12wnw71080100 3.6 10121102
17:00+14w7106889 1.1 10131596
20:00+12w6107954 1.6 1016766